[[{"header":{"parameterUnit":"m.s-1","parameterCategory":1,"la1":30.2991,"la2":30.254,"lo1":-89.0895,"lo2":-89.0444,"dy":0.0017,"dx":0.0017,"nx":28,"ny":28,"refTime":"2025-01-01T09:00:00:Z","depth":0,"parameterNumber":2,"parameterNumberName":"U-component_of_WINDS"},"data":[0,0,0,0,0,0,0,0,0,0,0,0,0,0,0,0,0,0,0,0,0,0,0,0,0,0,0,0,0,0,0,0,0,0,0,0,0,0,0,0,0,0,0,0,0,0,0,0,0,0,0,0,0,0,0,0,0,0,-1.3935,-1.3935,0,-1.3945,-1.3945,-1.3945,-1.3906,-1.3905,-1.3904,-1.3903,-1.3912,-1.3914,-1.3915,0,0,0,0,0,0,0,0,0,0,0,0,0,-1.3885,-1.3886,-1.3935,-1.3935,-1.3936,-1.3945,-1.3945,-1.3945,-1.3906,-1.3905,-1.3904,-1.3902,-1.3912,-1.3914,-1.3915,0,0,0,0,0,0,0,0,0,0,0,0,0,-1.3902,-1.3886,-1.3935,-1.3917,-1.3916,-1.3945,-1.3945,-1.3945,-1.3907,-1.3905,-1.3903,-1.3902,-1.3911,-1.3913,-1.3915,-1.3961,0,0,-1.3921,-1.3922,0,0,0,0,0,0,0,0,-1.3901,-1.3903,-1.392,-1.3919,-1.3917,-1.3922,-1.393,-1.395,-1.3907,-1.391,-1.3903,-1.3901,-1.3917,-1.3919,-1.3924,-1.3962,-1.3962,-1.3921,-1.3923,-1.3924,-1.3924,0,0,0,0,0,0,0,-1.3899,-1.3903,-1.3939,-1.392,-1.3919,-1.3909,-1.391,-1.3934,-1.3923,-1.391,-1.3907,-1.3909,-1.3916,-1.3922,-1.3924,-1.3962,-1.3921,-1.3923,-1.3924,-1.3925,-1.4038,-1.404,0,0,0,0,0,0,-1.3901,-1.3902,-1.3939,-1.3939,-1.3904,-1.3911,-1.3912,-1.3922,-1.3923,-1.3921,-1.391,-1.3907,-1.392,-1.3922,-1.3924,-1.3977,-1.3923,-1.3925,-1.3926,-1.4036,-1.4039,-1.4041,0,0,0,0,0,0,-1.39,-1.3904,-1.3938,-1.392,-1.3923,-1.3914,-1.3926,-1.3924,-1.393,-1.3923,-1.3921,-1.3918,-1.3918,-1.3921,-1.3952,-1.3977,-1.3926,-1.3928,-1.4034,-1.4037,-1.404,-1.4085,0,0,0,0,0,0,-1.3898,-1.3904,-1.3922,-1.3921,-1.3925,-1.3966,-1.3928,-1.3925,-1.3933,-1.3929,-1.393,-1.3929,-1.3917,-1.395,-1.3954,-1.3979,-1.393,-1.4032,-1.4035,-1.4039,-1.4081,-1.4089,-1.4096,0,0,0,0,0,-1.3897,-1.3934,-1.3923,-1.3927,-1.3946,-1.3968,-1.397,-1.3956,-1.3935,-1.3953,-1.3948,-1.3929,-1.3974,-1.3953,-1.3958,-1.3984,-1.403,-1.4034,-1.4038,-1.4078,-1.4087,-1.4095,0,0,0,0,0,0,-1.3938,-1.3934,-1.3921,-1.3959,-1.3964,-1.3961,-1.3983,-1.3967,-1.3978,-1.3974,-1.3956,-1.3957,-1.3991,-1.399,-1.3967,-1.4028,-1.3998,-1.4004,-1.4027,-1.4036,-1.4043,-1.4042,-1.3931,0,0,0,0,0,-1.3952,-1.397,-1.3965,-1.3999,-1.4002,-1.3992,-1.4001,-1.399,-1.3995,-1.3997,-1.3995,-1.4,-1.4015,-1.4026,-1.404,-1.4081,-1.4081,-1.4102,-1.4109,-1.4115,-1.4119,-1.4141,-1.415,-1.4054,-1.4054,-1.4054,0,0,-1.398,-1.398,-1.3992,-1.4007,-1.401,-1.4029,-1.3994,-1.4016,-1.403,-1.4,-1.4029,-1.4028,-1.4032,-1.4069,-1.4085,-1.407,-1.4146,-1.412,-1.4125,-1.4126,-1.4146,-1.4155,-1.4163,-1.4057,-1.4056,-1.4056,0,0,-1.4041,-1.4043,-1.4071,-1.4075,-1.4079,-1.4072,-1.4079,-1.4079,-1.4077,-1.4106,-1.4084,-1.41,-1.4127,-1.4131,-1.4137,-1.42,-1.4182,-1.4205,-1.4242,-1.4263,-1.4271,-1.4277,-1.4299,-1.4307,-1.4209,-1.421,-1.421,0,-1.4075,-1.4103,-1.4088,-1.4111,-1.4118,-1.4092,-1.412,-1.4125,-1.4134,-1.4139,-1.4122,-1.4155,-1.4157,-1.4194,-1.4209,-1.4215,-1.4222,-1.4204,-1.4271,-1.4277,-1.4283,-1.4303,-1.4312,-1.4212,-1.4212,-1.4212,-1.4211,0,-1.4144,-1.4164,-1.4186,-1.4195,-1.4205,-1.4231,-1.422,-1.4232,-1.422,-1.4215,-1.4244,-1.4245,-1.4259,-1.4267,-1.4256,-1.4302,-1.4292,-1.4274,-1.4243,-1.4295,-1.4314,-1.4322,-1.4216,-1.4215,-1.4214,-1.4214,0,0,-1.4231,-1.4231,-1.424,-1.4243,-1.4246,-1.4261,-1.4286,-1.4299,-1.4309,-1.4316,-1.4336,-1.436,-1.4342,-1.4349,-1.4338,-1.4357,-1.4406,-1.4335,-1.4335,-1.4348,-1.4456,-1.4469,-1.4479,-1.4394,-1.4396,-1.4397,-1.4455,0,-1.4289,-1.4331,-1.4318,-1.436,-1.4378,-1.4354,-1.4375,-1.438,-1.4376,-1.439,-1.4386,-1.4403,-1.4379,-1.4382,-1.44,-1.4396,-1.4427,-1.4392,-1.4412,-1.4413,-1.441,-1.4489,-1.4503,-1.4558,-1.4463,-1.4464,-1.4465,0,-1.4363,-1.4373,-1.4417,-1.4417,-1.4424,-1.4443,-1.4454,-1.4468,-1.4473,-1.4469,-1.4476,-1.4462,-1.4486,-1.4456,-1.4489,-1.4465,-1.4473,-1.4472,-1.4474,-1.4474,-1.4441,-1.449,-1.4575,-1.4583,-1.4476,-1.4475,-1.4475,0,-1.4421,-1.4445,-1.4474,-1.4478,-1.4479,-1.4493,-1.4494,-1.4497,-1.4506,-1.4516,-1.4521,-1.4533,-1.454,-1.455,-1.4539,-1.4519,-1.4573,-1.4543,-1.457,-1.457,-1.4581,-1.4581,-1.4668,-1.4589,-1.4588,-1.4588,-1.4588,0,-1.4487,-1.4514,-1.45,-1.4518,-1.4547,-1.4533,-1.4563,-1.4562,-1.4564,-1.4581,-1.4562,-1.4578,-1.4564,-1.4579,-1.4571,-1.4598,-1.4602,-1.4599,-1.4596,-1.46,-1.46,-1.4604,-1.4599,-1.459,-1.459,-1.459,-1.4589,0,-1.4555,-1.4547,-1.4577,-1.4576,-1.4576,-1.4598,-1.4597,-1.4613,-1.4608,-1.463,-1.4634,-1.4626,-1.4643,-1.4634,-1.4651,-1.4645,-1.4681,-1.4674,-1.468,-1.4677,-1.4704,-1.4701,-1.4796,-1.4807,-1.4722,-1.4723,-1.4723,0,-1.4598,-1.4618,-1.4619,-1.4629,-1.4631,-1.4648,-1.4656,-1.4643,-1.4653,-1.466,-1.4675,-1.469,-1.4701,-1.4729,-1.4725,-1.4738,-1.473,-1.4763,-1.4732,-1.4735,-1.473,-1.4728,-1.473,-1.4768,-1.4769,-1.477,-1.4771,0,-1.4673,-1.4668,-1.4681,-1.4693,-1.4704,-1.4713,-1.472,-1.4729,-1.4716,-1.4728,-1.4745,-1.4753,-1.4771,-1.4786,-1.4797,-1.4798,-1.4782,-1.4781,-1.4787,-1.4791,-1.4793,-1.4791,-1.4695,-1.4778,-1.4777,-1.4777,-1.4777,-1.4776,-1.4729,-1.4746,-1.4749,-1.4764,-1.4768,-1.4776,-1.4791,-1.4788,-1.4801,-1.4814,-1.4806,-1.4826,-1.483,-1.4843,-1.4846,-1.4861,-1.4848,-1.4859,-1.4861,-1.4863,-1.4866,-1.4792,-1.4864,-1.4863,-1.4863,-1.4863,-1.4863,0,-1.4803,-1.4804,-1.4818,-1.4828,-1.4841,-1.4825,-1.4832,-1.4843,-1.486,-1.4866,-1.4877,-1.4896,-1.4911,-1.4908,-1.4921,-1.4934,-1.4927,-1.4938,-1.4936,-1.4936,-1.4878,-1.487,-1.4943,-1.4943,-1.4943,-1.4943,-1.4943,-1.4943,-1.4843,-1.487,-1.4865,-1.4895,-1.4895,-1.4914,-1.492,-1.4926,-1.493,-1.4952,-1.4964,-1.4962,-1.4964,-1.4977,-1.499,-1.4989,-1.4994,-1.5007,-1.5003,-1.4948,-1.494,-1.4933,-1.4925,-1.5009,-1.5009,-1.506,-1.5061,-1.5061]},{"header":{"parameterUnit":"m.s-1","parameterCategory":1,"la1":30.2991,"la2":30.254,"lo1":-89.0895,"lo2":-89.0444,"dy":0.0017,"dx":0.0017,"nx":28,"ny":28,"refTime":"2025-01-01T09:00:00:Z","depth":0,"parameterNumber":3,"parameterNumberName":"V-component_of_WINDS"},"data":[0,0,0,0,0,0,0,0,0,0,0,0,0,0,0,0,0,0,0,0,0,0,0,0,0,0,0,0,0,0,0,0,0,0,0,0,0,0,0,0,0,0,0,0,0,0,0,0,0,0,0,0,0,0,0,0,0,0,-0.0755,-0.0754,0,-0.0605,-0.0603,-0.0602,-0.0529,-0.0529,-0.0529,-0.0529,-0.0374,-0.0369,-0.0365,0,0,0,0,0,0,0,0,0,0,0,0,0,-0.0976,-0.0973,-0.0756,-0.0754,-0.0752,-0.0605,-0.0603,-0.0601,-0.0529,-0.0529,-0.0529,-0.053,-0.0375,-0.037,-0.0365,0,0,0,0,0,0,0,0,0,0,0,0,0,-0.0859,-0.0971,-0.0756,-0.0698,-0.0692,-0.0606,-0.0603,-0.0601,-0.0529,-0.0529,-0.0529,-0.053,-0.0377,-0.037,-0.0364,-0.0324,0,0,-0.0345,-0.0342,0,0,0,0,0,0,0,0,-0.0865,-0.0851,-0.0709,-0.0702,-0.0695,-0.0586,-0.0624,-0.0508,-0.0529,-0.0591,-0.0529,-0.053,-0.0444,-0.0432,-0.0404,-0.0316,-0.031,-0.0344,-0.0341,-0.0338,-0.0336,0,0,0,0,0,0,0,-0.0874,-0.0857,-0.0696,-0.0707,-0.0698,-0.0679,-0.0662,-0.0602,-0.0519,-0.0586,-0.058,-0.0563,-0.044,-0.041,-0.04,-0.0308,-0.0345,-0.0339,-0.0335,-0.0333,-0.0176,-0.0176,0,0,0,0,0,0,-0.0892,-0.0864,-0.0701,-0.0691,-0.0782,-0.0675,-0.0656,-0.0621,-0.0519,-0.0504,-0.0563,-0.056,-0.0421,-0.0407,-0.0394,-0.0338,-0.0338,-0.0332,-0.0328,-0.0176,-0.0176,-0.0176,0,0,0,0,0,0,-0.0897,-0.0878,-0.0707,-0.0776,-0.0753,-0.0671,-0.0632,-0.0618,-0.0588,-0.0503,-0.0487,-0.0548,-0.042,-0.0403,-0.0341,-0.0331,-0.0329,-0.0323,-0.0177,-0.0176,-0.0176,-0.0227,0,0,0,0,0,0,-0.0903,-0.088,-0.0865,-0.0776,-0.0749,-0.0658,-0.0631,-0.0615,-0.0577,-0.0572,-0.0484,-0.047,-0.0419,-0.0351,-0.0335,-0.0323,-0.0319,-0.0177,-0.0177,-0.0176,-0.0226,-0.0228,-0.023,0,0,0,0,0,-0.0911,-0.0886,-0.0865,-0.0845,-0.0729,-0.0658,-0.0642,-0.0585,-0.0577,-0.056,-0.0505,-0.0472,-0.0335,-0.0345,-0.0327,-0.0312,-0.0178,-0.0177,-0.0176,-0.0225,-0.0228,-0.023,0,0,0,0,0,0,-0.0975,-0.0873,-0.0849,-0.0794,-0.0735,-0.0646,-0.0623,-0.0591,-0.0533,-0.053,-0.0461,-0.0442,-0.0386,-0.0343,-0.0356,-0.0266,-0.0253,-0.0249,-0.0297,-0.0299,-0.0301,-0.0312,-0.0313,0,0,0,0,0,-0.0983,-0.0935,-0.0847,-0.0807,-0.0779,-0.0706,-0.0673,-0.0634,-0.057,-0.0545,-0.0485,-0.0424,-0.0366,-0.033,-0.0273,-0.0219,-0.0198,-0.02,-0.0202,-0.0204,-0.0201,-0.0167,-0.0166,-0.0173,-0.0173,-0.0173,0,0,-0.0998,-0.0936,-0.091,-0.0818,-0.0768,-0.0718,-0.0686,-0.0635,-0.0596,-0.0537,-0.0475,-0.0429,-0.0355,-0.0297,-0.0268,-0.0259,-0.0194,-0.0203,-0.0206,-0.0201,-0.0166,-0.0165,-0.0165,-0.0172,-0.0172,-0.0172,0,0,-0.1,-0.095,-0.0909,-0.0859,-0.0784,-0.0735,-0.0726,-0.0641,-0.0608,-0.0545,-0.0498,-0.0451,-0.0354,-0.0303,-0.0264,-0.0244,-0.0211,-0.0227,-0.0239,-0.0207,-0.0206,-0.0205,-0.0196,-0.0194,-0.0225,-0.0225,-0.0225,0,-0.1029,-0.0953,-0.0893,-0.0843,-0.0803,-0.0747,-0.0704,-0.0659,-0.0568,-0.0541,-0.0533,-0.0409,-0.0355,-0.0283,-0.0278,-0.0249,-0.0234,-0.0237,-0.0211,-0.021,-0.0208,-0.0199,-0.0196,-0.0227,-0.0227,-0.0226,-0.0226,0,-0.099,-0.0938,-0.0914,-0.0828,-0.0785,-0.074,-0.0672,-0.0635,-0.0599,-0.0551,-0.0486,-0.0419,-0.0347,-0.0327,-0.0291,-0.0248,-0.0245,-0.0225,-0.021,-0.0211,-0.0201,-0.0197,-0.023,-0.023,-0.0229,-0.0228,0,0,-0.103,-0.0909,-0.0902,-0.0861,-0.0772,-0.073,-0.0681,-0.061,-0.0579,-0.0518,-0.0474,-0.0392,-0.0372,-0.0328,-0.0286,-0.0258,-0.0243,-0.024,-0.0237,-0.0242,-0.0189,-0.0205,-0.0202,-0.0221,-0.022,-0.022,-0.0195,0,-0.1018,-0.0929,-0.0872,-0.0805,-0.0754,-0.0699,-0.0655,-0.0595,-0.0548,-0.0497,-0.0445,-0.0388,-0.0367,-0.0339,-0.0309,-0.0252,-0.0232,-0.0253,-0.0178,-0.0176,-0.0197,-0.0197,-0.0213,-0.0193,-0.0191,-0.019,-0.019,0,-0.0994,-0.0934,-0.0862,-0.0776,-0.0753,-0.0715,-0.0644,-0.0597,-0.0527,-0.0494,-0.0444,-0.0401,-0.0345,-0.0335,-0.0256,-0.0271,-0.0237,-0.0204,-0.0202,-0.0192,-0.0183,-0.0186,-0.0186,-0.0183,-0.0183,-0.0184,-0.0184,0,-0.1028,-0.0929,-0.0872,-0.0839,-0.0739,-0.0713,-0.067,-0.06,-0.056,-0.0497,-0.047,-0.0402,-0.0365,-0.0312,-0.0251,-0.025,-0.0177,-0.0162,-0.0147,-0.0148,-0.0134,-0.0135,-0.0127,-0.0113,-0.0113,-0.0114,-0.0114,0,-0.1021,-0.0978,-0.0886,-0.0851,-0.0801,-0.0735,-0.0687,-0.0639,-0.0576,-0.053,-0.0477,-0.0434,-0.0357,-0.0304,-0.0255,-0.0195,-0.0179,-0.015,-0.0138,-0.0154,-0.0158,-0.0131,-0.013,-0.0113,-0.0113,-0.0113,-0.0113,0,-0.1051,-0.0987,-0.0921,-0.0831,-0.0807,-0.0774,-0.0696,-0.0659,-0.0609,-0.055,-0.0532,-0.0453,-0.0387,-0.0321,-0.0233,-0.02,-0.0141,-0.0125,-0.0165,-0.0158,-0.0146,-0.0147,-0.0119,-0.0111,-0.0104,-0.0104,-0.0105,0,-0.105,-0.1016,-0.0922,-0.0887,-0.0845,-0.079,-0.0748,-0.0682,-0.0641,-0.0557,-0.0529,-0.046,-0.0401,-0.0298,-0.0232,-0.0163,-0.0144,-0.0139,-0.0134,-0.0151,-0.0142,-0.0145,-0.014,-0.0141,-0.0142,-0.0142,-0.0142,0,-0.1055,-0.1025,-0.0968,-0.09,-0.0852,-0.0794,-0.0735,-0.0709,-0.063,-0.0586,-0.0519,-0.0473,-0.0382,-0.0313,-0.0236,-0.019,-0.0152,-0.0144,-0.0137,-0.0153,-0.0177,-0.0162,-0.017,-0.0145,-0.0145,-0.0145,-0.0145,-0.0144,-0.1069,-0.1035,-0.0963,-0.09,-0.0849,-0.0794,-0.0754,-0.0698,-0.0641,-0.0562,-0.0525,-0.0457,-0.0385,-0.0278,-0.0232,-0.0176,-0.0166,-0.0156,-0.0153,-0.0151,-0.0154,-0.0187,-0.0162,-0.0162,-0.0162,-0.0162,-0.0162,0,-0.107,-0.1021,-0.0964,-0.0882,-0.0832,-0.0801,-0.0733,-0.0693,-0.0634,-0.057,-0.0513,-0.0434,-0.0366,-0.0294,-0.0221,-0.019,-0.0171,-0.0174,-0.0175,-0.0164,-0.0168,-0.0182,-0.019,-0.019,-0.019,-0.019,-0.019,-0.019,-0.1065,-0.1005,-0.0966,-0.0879,-0.0829,-0.0763,-0.0726,-0.0674,-0.0623,-0.0537,-0.0481,-0.0434,-0.0366,-0.0288,-0.0223,-0.0203,-0.0179,-0.0186,-0.0161,-0.0166,-0.0164,-0.0162,-0.0174,-0.0181,-0.0181,-0.0161,-0.0161,-0.0161]}]]